TimeCST,TemperatureF,Dew PointF,Humidity,Sea Level PressureIn,VisibilityMPH,Wind Direction,Wind SpeedMPH,Gust SpeedMPH,PrecipitationIn,Events,Conditions,WindDirDegrees,DateUTC
12:56 AM,45.0,36.9,73,30.26,-9999.0,South,5.8,-,N/A,,Overcast,180,2013-01-09 06:56:00
1:56 AM,45.9,37.9,74,30.27,-9999.0,South,8.1,-,0.00,,Overcast,180,2013-01-09 07:56:00
2:56 AM,45.0,39.9,82,30.28,-9999.0,South,4.6,-,0.00,,Overcast,190,2013-01-09 08:56:00
3:56 AM,45.0,39.9,82,30.28,-9999.0,South,4.6,-,0.00,,Overcast,180,2013-01-09 09:56:00
4:56 AM,45.0,39.9,82,30.30,-9999.0,Calm,Calm,-,0.00,,Overcast,0,2013-01-09 10:56:00
5:56 AM,45.0,39.9,82,30.34,7.0,NW,8.1,-,0.00,,Light Drizzle,320,2013-01-09 11:56:00
6:56 AM,45.9,41.9,86,30.37,7.0,Calm,Calm,-,0.00,,Light Drizzle,0,2013-01-09 12:56:00
7:11 AM,46.4,42.8,87,30.37,7.0,Calm,Calm,-,0.00,Rain,Light Rain,0,2013-01-09 13:11:00
7:56 AM,43.9,43.0,97,30.40,7.0,South,4.6,-,0.00,,Overcast,180,2013-01-09 13:56:00
8:56 AM,45.9,43.9,93,30.42,6.0,Calm,Calm,-,0.00,Rain,Light Rain,0,2013-01-09 14:56:00
9:56 AM,45.9,43.9,93,30.44,7.0,Variable,4.6,-,0.00,,Overcast,0,2013-01-09 15:56:00
10:56 AM,50.0,45.9,86,30.40,7.0,South,4.6,-,N/A,,Mostly Cloudy,190,2013-01-09 16:56:00
11:56 AM,54.0,45.9,74,30.40,10.0,Calm,Calm,-,N/A,,Clear,0,2013-01-09 17:56:00
12:56 PM,54.9,45.9,72,30.38,10.0,Calm,Calm,-,N/A,,Clear,0,2013-01-09 18:56:00
1:56 PM,57.9,45.9,64,30.38,10.0,NNW,5.8,-,N/A,,Clear,340,2013-01-09 19:56:00
2:56 PM,57.9,45.9,64,30.40,10.0,North,3.5,-,N/A,,Clear,360,2013-01-09 20:56:00
3:56 PM,55.9,45.0,67,30.41,10.0,North,4.6,-,N/A,,Clear,360,2013-01-09 21:56:00
4:56 PM,52.0,43.9,74,30.43,10.0,North,6.9,-,N/A,,Clear,10,2013-01-09 22:56:00
5:56 PM,48.9,43.0,80,30.45,10.0,NE,3.5,-,N/A,,Clear,40,2013-01-09 23:56:00
6:56 PM,48.9,43.9,83,30.48,10.0,NE,4.6,-,N/A,,Clear,50,2013-01-10 00:56:00
8:56 PM,45.9,41.9,86,30.48,10.0,NE,5.8,-,N/A,,Clear,40,2013-01-10 02:56:00
9:56 PM,45.9,41.0,83,30.49,10.0,NE,5.8,-,N/A,,Clear,50,2013-01-10 03:56:00
10:56 PM,45.9,39.9,80,30.48,10.0,NE,6.9,-,N/A,,Clear,50,2013-01-10 04:56:00
11:56 PM,45.0,38.8,79,30.48,10.0,ENE,6.9,-,N/A,,Clear,60,2013-01-10 05:56:00